Location: De Greiden
(52.9496°N, 5.9137°E)
Time: 01:24:23
(UTC+00:00)

USA 229 DEB - Pass Details

Date: 24 January 2021
Orbit: 965 x 1247 km, 63.4° (Epoch: 26 February)

Event Time Altitude Azimuth Distance (km) Brightness Sun altitude
Rises 18:30:21 0° 313° (NW) 3,927 7.3 -21.3°
Reaches altitude 10° 18:32:58 10° 311° (NW) 3,006 6.7 -21.7°
Maximum altitude 18:40:06 66° 231° (SW) 1,274 4.2 -22.8°
Enters shadow 18:47:26 11° 152° (SSE) 3,100 5.8 -23.9°
